www.pogodaiklimat.ru

Погода и климат >> Архив погоды >> Россия >> Магаданская область >> Среднекан


ПОГОДА в Среднекане

  • Прогноз погоды в Среднекане
  • Монитор погоды в Среднекане

АРХИВ ПОГОДЫ в Среднекане

Время (UTC), дата Ветер
(напр.,м/с)
 
Видим.   Явления Облачность Т
(С)
Тd
(С)
f
(%)
Тe
(С)
Тes
(С)
Комфортность P
(гПа)
Po
(гПа)
Тmin
(С)
Tmax
(С)
R
(мм)
R24
(мм)
S
(см)
06 17.02 штиль 0 20 км слаб. снег 10/8 1000 м
[Sc As op]
-27.4 -30.6 74 -27 -27 1005.1 969.2
09 17.02 штиль 0 20 км слаб. снег 10/8 1000 м
[Sc As op]
-27.5 -30.7 74 -28 -28 1006.5 970.6 -27.0 0.9
12 17.02 штиль 0 10 км слаб. снег 10/6 1000 м
[Sc As op]
-27.4 -30.5 75 -27 -27 1007.1 971.2
15 17.02 штиль 0 20 км слаб. снег 10/3 1000 м
[Sc As op]
-27.5 -30.6 75 -28 -28 1007.7 971.7
18 17.02 штиль 0 20 км слаб. снег 10/3 1000 м
[Sc As op]
-27.2 -30.3 75 -27 -27 1007.9 972.0
21 17.02 штиль 0 20 км слаб. снег 10/6 1000 м
[Sc As op]
-27.3 -30.4 75 -27 -27 1008.6 972.7 -27.5 0.4 105
00 18.02 штиль 0 20 км слаб. снег 10/3 1000 м
[Sc Ac trans Cs]
-24.9 -27.9 76 -25 -24 1009.0 973.3
03 18.02 штиль 0 50 км {снег} 10/3 1000 м
[Sc Ac trans Ci fib]
-23.1 -25.9 78 -23 -22 1008.8 973.4
06 18.02 штиль 0 50 км {снег} 10/6 1000 м
[Sc Ac trans Ci fib]
-23.1 -25.9 78 -23 -23 1009.8 974.4
09 18.02 штиль 0 20 км слаб. снег 10/3 1000 м
[Sc Ac trans Cs]
-25.3 -28.1 77 -25 -25 1011.6 975.8 -20.8 0.0
12 18.02 штиль 0 20 км слаб. снег 10/0
[Ac trans Cs]
-27.1 -30.1 76 -27 -27 1013.2 977.1
15 18.02 штиль 0 20 км слаб. снег 10/0
[Ac trans Cs]
-30.5 -33.8 73 -31 -31 опасность
обморожения
1014.9 978.3
18 18.02 ЮВ 1 50 км {снег} 8/0
[Ac trans Ci fib]
-33.4 -37.0 70 -38 -38 опасность
обморожения
1016.9 979.8
21 18.02 штиль 0 50 км 5/0
[Ac trans Ci fib]
-33.9 -37.6 69 -34 -34 опасность
обморожения
1018.5 981.2 -33.9 0.0 105
00 19.02 штиль 0 50 км 5/0
[Ac trans Ci fib]
-29.8 -33.1 73 -30 -29 1018.8 982.1 -34.1
03 19.02 штиль 0 50 км 4/0
[Ac trans Ci fib]
-26.9 -30.1 74 -27 -25 1018.1 981.9
06 19.02 штиль 0 50 км 3/0
[Ci fib]
-27.1 -30.2 75 -27 -27 1018.6 982.3
09 19.02 В 1 50 км 3/0
[Ci fib]
-31.9 -35.4 71 -36 -36 опасность
обморожения
1020.1 983.1 -24.0
12 19.02 ЮВ 1 50 км 3/0
[Ci fib]
-34.5 -38.4 68 -39 -39 опасность
обморожения
1021.2 983.7
15 19.02 штиль 0 50 км 4/0
[Ci fib]
-36.5 -40.5 66 -37 -37 опасность
обморожения
1022.1 984.3
18 19.02 штиль 0 50 км 3/0
[Ci fib]
-37.9 -42.1 65 -38 -38 опасность
обморожения
1022.8 984.7
21 19.02 штиль 0 50 км 3/0
[Ci fib]
-38.3 -42.6 64 -38 -38 опасность
обморожения
1023.6 985.5 -38.6 105
00 20.02 штиль 0 50 км 5/0
[Ci fib]
-35.4 -39.4 67 -35 -34 опасность
обморожения
1023.8 986.1 -39.2
03 20.02 Ю 1 50 км 5/0
[Ci fib]
-31.6 -35.4 69 -36 -34 опасность
обморожения
1023.2 986.1
06 20.02 Ю 1 50 км 10/0
[Ac trans Ci fib]
-31.0 -34.5 71 -35 -35 опасность
обморожения
1023.5 986.5
09 20.02 штиль 0 20 км слаб. снег 10/0
[Ac trans Cs]
-32.4 -36.0 70 -32 -32 опасность
обморожения
1024.8 987.5 -30.2 0.0
12 20.02 штиль 0 20 км слаб. снег 10/0
[Ac trans Cs]
-34.3 -38.1 68 -34 -34 опасность
обморожения
1025.6 988.0 -14.0
15 20.02 В 1 20 км слаб. снег 10/0
[Ac trans Cs]
-35.2 -39.1 67 -40 -40 опасность
обморожения
1025.9 988.1
18 20.02 штиль 0 20 км слаб. снег 10/0
[Ac trans Cs]
-36.4 -40.6 65 -36 -36 опасность
обморожения
1026.0 988.1
21 20.02 штиль 0 50 км {снег} 8/0
[Ac trans Ci fib]
-37.9 -42.2 64 -38 -38 опасность
обморожения
1026.2 988.0 -38.0 0.1 105
00 21.02 штиль 0 50 км {снег} 6/0
[Ci fib]
-34.7 -38.7 67 -35 -33 опасность
обморожения
1025.3 987.6 -38.1
03 21.02 Ю 1 50 км 6/0
[Ci fib]
-31.7 -35.5 69 -36 -34 опасность
обморожения
1022.9 985.8
06 21.02 Ю 1 50 км 6/0
[Ci fib]
-30.5 -34.2 70 -35 -35 опасность
обморожения
1021.5 984.6
09 21.02 штиль 0 50 км 8/0
[Ci fib]
-33.0 -36.7 69 -33 -33 опасность
обморожения
1021.5 984.2 -30.0
12 21.02 штиль 0 50 км 5/0
[Ci fib]
-37.7 -41.9 65 -38 -38 опасность
обморожения
1021.9 983.9
15 21.02 штиль 0 50 км 5/0
[Ci fib]
-38.7 -43.0 64 -39 -39 опасность
обморожения
1021.4 983.2
18 21.02 штиль 0 50 км 5/0
[Ci fib]
-39.8 -44.3 62 -40 -40 опасность
обморожения
1021.3 983.0
21 21.02 штиль 0 500 м переохл. туман 5/0
[Ci fib]
-41.1 -45.7 61 -41 -41 опасность
обморожения
1021.1 982.6 -41.4 105
00 22.02 штиль 0 500 м переохл. туман 8/0
[Ci fib]
-36.7 -40.8 66 -37 -35 опасность
обморожения
1020.1 982.3
03 22.02 штиль 0 50 км в посл. час туман 10/0
[Ci fib]
-33.3 -37.3 67 -33 -31 опасность
обморожения
1018.1 980.9
06 22.02 Ю 1 50 км {туман} 6/0
[Ci fib]
-32.3 -36.3 67 -37 -37 опасность
обморожения
1016.6 979.6
09 22.02 штиль 0 50 км 8/0
[Ac trans Ci fib]
-35.3 -39.3 67 -35 -35 опасность
обморожения
1016.7 979.3 -31.5
12 22.02 штиль 0 50 км 5/0
[Ci fib]
-37.5 -41.8 64 -38 -38 опасность
обморожения
1016.3 978.5
15 22.02 штиль 0 50 км 10/0
[Ci fib]
-39.0 -43.4 63 -39 -39 опасность
обморожения
1015.2 977.2
18 22.02 штиль 0 500 м переохл. туман 10/0
[Ci fib]
-40.1 -44.6 62 -40 -40 опасность
обморожения
1014.2 976.1
21 22.02 штиль 0 500 м переохл. туман ?/? -39.5 -44.0 62 -40 -40 опасность
обморожения
1014.1 976.1 -40.2 105
00 23.02 штиль 0 500 м переохл. туман ?/? -37.7 -42.0 64 -38 -38 опасность
обморожения
1013.6 975.9
03 23.02 Ю 1 500 м переохл. туман 10/0
[Ac trans Ci fib]
-33.3 -37.3 67 -38 -36 опасность
обморожения
1012.5 975.5
06 23.02 штиль 0 10 км дымка {туман} 10/0
[Ac trans Ci fib]
-32.4 -36.2 69 -32 -32 опасность
обморожения
1013.0 976.1
09 23.02 штиль 0 20 км слаб. снег 10/0
[Ac trans Cs]
-33.9 -37.8 68 -34 -34 опасность
обморожения
1014.8 977.6 -31.3 0.0
12 23.02 штиль 0 20 км слаб. снег 10/0
[Ac trans Cs]
-34.3 -38.3 67 -34 -34 опасность
обморожения
1015.7 978.4
15 23.02 штиль 0 20 км слаб. снег 10/0
[As op]
-33.2 -37.0 69 -33 -33 опасность
обморожения
1015.8 978.8
18 23.02 ЮВ 1 20 км слаб. снег 10/0
[Ac trans Cs]
-34.9 -38.9 67 -40 -40 опасность
обморожения
1016.5 979.2
21 23.02 штиль 0 20 км слаб. снег 10/0
[Ac trans Cs]
-36.7 -40.9 65 -37 -37 опасность
обморожения
1016.9 979.2 -36.7 0.2 105
00 24.02 ЮВ 1 20 км слаб. снег 10/0
[Ac trans Cs]
-35.7 -39.8 66 -40 -39 опасность
обморожения
1016.2 978.7 -37.6
03 24.02 штиль 0 20 км слаб. снег 10/0
[Ac trans Cs]
-31.9 -35.8 68 -32 -30 опасность
обморожения
1013.9 977.0

 

Местоположение метеостанции Среднекан (Магаданская область, Россия): широта 62.45 долгота 152.30 высота над уровнем моря 260 м.

В архиве по умолчанию представлена погода в Среднекане за последнюю неделю. Архивные данные за месяц целиком и за предыдущие месяцы, начиная с января 2011 года, Вы можете получить, выбрав интересующий диапазон дат из раскрывающегося списка и нажав кнопку "Ввод!".


*Определитесь, кто Вы:
робот инопланетянин человек

Внимание! Время в таблицах - всемирное. Для получения местного времени необходимо прибавить поправку, которая равна 11 ч.

Смотрите также архив погоды в соседних городах и на ближайших метеорологических станциях:

Погода в Сеймчане (Магаданская область, Россия) (51 км)
Погода в Совхозе Эльген (Магаданская область, Россия) (95 км)
Погода в Усть-Бохапче (Магаданская область, Россия) (96 км)
Погода в Ягодной (Магаданская область, Россия) (139 км)
Погода в Талой (Магаданская область, Россия) (147 км)
Погода на Озере Джека Лондона (Магаданская область, Россия) (151 км)
Погода в Омсукчане (Магаданская область, Россия) (180 км)
Погода в Балыгычане (Магаданская область, Россия) (186 км)
Погода в Усть-Омчуге (Магаданская область, Россия) (205 км)
Погода в Сусумане (Магаданская область, Россия) (218 км)

Пояснения к столбцам:

Ветер - указаны скорость ветра в м/с - средняя за 10 мин, порывы в срок и между сроками (в фигурных скобках) и направление, откуда дует ветер: С - северный, СВ - северо-восточный, В - восточный, ЮВ - юго-восточный, Ю - южный, ЮЗ - юго-западный, З - западный, СЗ - северо-западный.
Видимость - горизонтальная дальность видимости в метрах или километрах. При видимости от 1 до 10 км при отсутствии осадков обычно наблюдается дымка, при ухудшении видимости до 1 км и менее - туман. В сухую погоду видимость может ухудшаться дымом, пылью или мглою.
Явления - указаны атмосферные явления, наблюдавшиеся в срок или в последний час перед сроком; фигурными скобками обозначены явления, наблюдавшиеся между сроками (за 1-3 часа до срока); квадратными скобками обозначены град или гололедные отложения с указанием их диаметра в мм.
Облачность - указаны через наклонную черту общая и нижняя облачность в баллах и высота нижней границы облаков в метрах; квадратными скобками обозначены формы облаков: Ci - перистые, Cs - перисто-слоистые, Cc - перисто-кучевые, Ac - высококучевые, As - высокослоистые, Sc - слоисто-кучевые, Ns - слоисто-дождевые, Cu - кучевые, Cb - кучево-дождевые. Подробнее классификацию облаков см. в Атласе облаков (PDF).
T - Температура воздуха - температура, измеренная на высоте 2 м над землей.
Td - Температура точки росы - температура, при понижении до которой содержащийся в воздухе водяной пар достигнет насыщения.
f - Относительная влажность воздуха - влажноcть воздуха, измеренная на высоте 2 м над землей.
Te - Эффективная температура - температура, которую ощущает одетый по сезону человек в тени. Характеристика душности погоды. При расчете учитывается влияние влажности воздуха и скорости ветра на теплоощущения человека.
Tes - Эффективная температура на солнце - температура, которую ощущает человек, с поправкой на солнечный нагрев. Характеристика знойности погоды. Зависит от высоты солнца над горизонтом, облачности и скорости ветра. Ночью, в пасмурную погоду, а также при ветре 12 м/с и более поправка равна нулю.
P - Атмосферное давление - приведенное к уровню моря атмосферное давление.
Po - Атмосферное давление - измеренное на уровне метеостанции атмосферное давление.
Tmin - Минимальная температура - минимум температуры воздуха на высоте 2 м над землей.
Tmax - Максимальная температура - максимум температуры воздуха на высоте 2 м над землей.
R - Количество осадков - Количество выпавших осадков за период времени, мм. При наведении курсора мыши на число - период времени, за который выпало указанное количество осадков.
R24 - Количество осадков - Количество выпавших осадков за 24 часа, мм.
S - Снежный покров - Высота снежного покрова, см. При наведении курсора мыши на число - состояние снежного покрова и степень покрытия местности в баллах.